Powrót do katalogu

METEOSAT 6 AKM

AktywnyGEO
NORAD 23118·ROCKET BODY·🇪🇺 EU

Wystrzelony Nov 20, 1993 z Guiana Space Centre

Loading…

TLE

ŚwieżeSource: Space-Track

Epoka: Aug 29, 2026, 04:07 UTC

1 23118U 93073E   26241.17198284 -.00000290  00000-0  00000+0 0  9993
2 23118  14.1714 346.5469 0066603 112.2426 258.0934  0.99995015 47921

Śledź METEOSAT 6 AKM w czasie rzeczywistym z AllMySat

Download on the App Store